Ketchikan, AK

8:17 AM AKST on November 15, 2018 (GMT -0900)
Ketchikan International

Weather History for PAKT - August, 2018

Change the Weather History Date:

Monday, August 27, 2018

  Actual Average Record
Temperature  
Mean Temperature 62 °F -  
Max Temperature 64 °F 62 °F 75 °F (1959)
Min Temperature 57 °F 49 °F 42 °F (1984)
Degree Days  
Heating Degree Days 4    
Growing Degree Days 12 (Base 50)    
Moisture  
Dew Point 54 °F    
Average Humidity 79    
Maximum Humidity 93    
Minimum Humidity 68    
Precipitation  
Precipitation 0.00 in - - ()
Sea Level Pressure  
Sea Level Pressure 30.20 in    
Wind  
Wind Speed 6 mph (East)    
Max Wind Speed 10 mph    
Max Gust Speed -    
Visibility 10 miles    
Events      
Averages and records for this station are not official NWS values.
T = Trace of Precipitation, MM = Missing Value Source: NWS Daily Summary

Daily Weather History Graph

Daily Weather History Graph

Search for Another Location

Airport or City:

Astronomy

Aug. 27, 2018 Rise Set
Actual Time 5:43 AM AKDT 7:51 PM AKDT
Civil Twilight 5:03 AM AKDT 8:31 PM AKDT
Nautical Twilight 4:13 AM AKDT 9:21 PM AKDT
Astronomical Twilight 3:13 AM AKDT 10:20 PM AKDT
Moon 8:41 PM AKDT (8/27) 6:50 AM AKDT (8/27)
Length of Visible Light 15h 27m
Length of Day
14h 08m
Full, 98% of the Moon is Illuminated
Aug 27
Full
Sep 2
Last Quarter
Sep 9
New
Sep 16
First Quarter
Sep 24
Full

Hourly Weather History & Observations

Time (AKDT) Temp. Dew Point Humidity Pressure Visibility Wind Dir Wind Speed Gust Speed Precip Events Conditions
12:53 AM 59.0 °F 52.0 °F 78% 30.22 in 10.0 mi NW 4.6 mph - N/A   Overcast
1:53 AM 59.0 °F 52.0 °F 78% 30.22 in 10.0 mi NW 6.9 mph - N/A   Overcast
2:53 AM 59.0 °F 51.1 °F 75% 30.22 in 10.0 mi North 6.9 mph - N/A   Mostly Cloudy
3:53 AM 60.1 °F 51.1 °F 72% 30.22 in 10.0 mi North 8.1 mph - N/A   Overcast
4:53 AM 59.0 °F 52.0 °F 78% 30.21 in 10.0 mi NNW 8.1 mph - N/A   Overcast
5:53 AM 59.0 °F 51.1 °F 75% 30.21 in 10.0 mi North 8.1 mph - N/A   Overcast
6:10 AM 59.0 °F 51.1 °F 75% 30.22 in 10.0 mi NNW 6.9 mph - N/A   Mostly Cloudy
6:12 AM 59.0 °F 52.0 °F 78% 30.22 in 10.0 mi NNW 6.9 mph - N/A   Overcast
6:53 AM 59.0 °F 51.8 °F 77% 30.23 in 10.0 mi Calm Calm - N/A   Overcast
7:53 AM 60.8 °F 51.8 °F 72% 30.23 in 10.0 mi North 3.5 mph - N/A   Overcast
8:53 AM 60.8 °F 51.8 °F 72% 30.23 in 10.0 mi Calm Calm - N/A   Overcast
9:53 AM 60.8 °F 53.6 °F 77% 30.23 in 10.0 mi NNW 3.5 mph - N/A   Overcast
10:53 AM 60.8 °F 53.6 °F 77% 30.23 in 10.0 mi Calm Calm - N/A   Overcast
11:53 AM 62.6 °F 53.6 °F 72% 30.22 in 10.0 mi ESE 9.2 mph - N/A   Overcast
12:53 PM 62.6 °F 55.4 °F 77% 30.22 in 10.0 mi ESE 9.2 mph - N/A   Overcast
1:53 PM 62.6 °F 55.4 °F 77% 30.22 in 10.0 mi SE 10.4 mph - N/A   Overcast
2:53 PM 64.4 °F 55.4 °F 73% 30.20 in 10.0 mi SE 10.4 mph - N/A   Mostly Cloudy
3:53 PM 64.4 °F 53.6 °F 68% 30.19 in 10.0 mi ESE 10.4 mph - N/A   Mostly Cloudy
4:53 PM 62.6 °F 55.4 °F 77% 30.18 in 10.0 mi SE 8.1 mph - N/A   Overcast
5:53 PM 60.8 °F 57.2 °F 88% 30.18 in 10.0 mi SE 5.8 mph - N/A   Overcast
6:51 PM 60.8 °F 57.2 °F 88% 30.17 in 10.0 mi SSE 5.8 mph - N/A   Mostly Cloudy
6:53 PM 60.8 °F 57.2 °F 88% 30.17 in 10.0 mi SE 5.8 mph - N/A   Mostly Cloudy
7:53 PM 60.8 °F 57.2 °F 88% 30.17 in 10.0 mi SSE 4.6 mph - N/A   Overcast
8:53 PM 60.8 °F 57.2 °F 88% 30.17 in 10.0 mi Calm Calm - N/A   Overcast
9:53 PM 60.1 °F 57.0 °F 90% 30.16 in 10.0 mi SE 4.6 mph - N/A   Mostly Cloudy
10:53 PM 59.0 °F 57.0 °F 93% 30.15 in 10.0 mi SSE 4.6 mph - N/A   Mostly Cloudy
11:53 PM 57.9 °F 55.9 °F 93% 30.14 in 10.0 mi South 3.5 mph - N/A   Mostly Cloudy